549  
ASUS42 KCAE 281710  
RWRCAE  
REGIONAL WEATHER ROUNDUP  
NATIONAL WEATHER SERVICE COLUMBIA SC  
100 PM EDT FRI APR 28 2017  
 
NOTE: "FAIR" INDICATES FEW OR NO CLOUDS BELOW 12,000 FEET WITH NO  
SIGNIFICANT WEATHER AND/OR S TO VISIBILITY
.  
 
NOT ALL STATIONS ARE QUALITY CONTROLLED BY THE NATIONAL  
WEATHER SERVICE. USE DATA WITH CAUTION...ESPECIALLY  
DEWPOINT OBSERVATIONS.  
 
SCZ001>056-GAZ040-063>065-077-281800-   
..UPSTATE SOUTH CAROLINA
 
 
 
CITY SKY/WX TMP DP RH WIND PRES REMARKS
 
ANDERSON PTSUNNY 77 67 71 VRB7 30.09S  
LIBERTY CLOUDY 74 67 78 CALM 30.09F  
SPARTANBURG CLOUDY 77 64 65 SW6 30.08S  
CLEMSON CLOUDY 76 66 71 CALM 30.10F  
GREENVILLE PTSUNNY 76 65 68 SW9 30.10S  
GREENWOOD PTSUNNY 80 66 62 S9 30.09F  
GREER CLOUDY 77 65 66 W6 30.08S  
ROCK HILL CLOUDY 78 67 68 SW8 30.09F  
CHESTER PTSUNNY 79 64 61 SW3 30.09F  
LAURENS CLOUDY 77 68 73 SW7 30.09S  
 
   
..CENTRAL SOUTH CAROLINA
 
 
 
CITY SKY/WX TMP DP RH WIND PRES REMARKS
 
COLUMBIA APT MOSUNNY 86 67 52 S12G18 30.05F  
COLUMBIA OWENS MOSUNNY 85 67 54 SW8 30.07F  
MCENTIRE ANGB MOSUNNY 85 69 58 S6 30.07F  
ORANGEBURG SUNNY 87 68 52 S10 30.08S  
SUMTER SHAW SUNNY 87 67 52 S10 30.05F  
NEWBERRY PTSUNNY 79 70 73 SW8 30.11S  
AIKEN FAIR 82 68 61 S10 30.11F  
BARNWELL FAIR 88 70 55 VRB5G12 30.07F  
MANNING FAIR 84 68 58 SW22 30.08F  
CAMDEN FAIR 84 68 58 CALM 30.08F  
LANCASTER MOSUNNY 82 72 69 S8 30.08F  
 
   
..EASTERN AND COASTAL SOUTH CAROLINA
 
 
 
CITY SKY/WX TMP DP RH WIND PRES REMARKS
 
N MYRTLE BCH MOSUNNY 79 74 84 S14 30.10F  
CONWAY FAIR 84 70 61 S9 30.09S  
MARION FAIR 86 64 48 S10G18 30.08S  
HARTSVILLE FAIR 82 68 61 S7 30.07F  
FLORENCE SUNNY 86 70 58 S13 30.08S  
DARLINGTON MOSUNNY 85 71 63 S13 30.08F  
CHARLESTON APT MOSUNNY 86 70 58 S15 30.09F  
MOUNT PLEASANT FAIR 82 75 78 S15G21 30.11S  
WALTERBORO SUNNY 88 66 48 S10 30.09F  
BEAUFORT MOSUNNY 86 71 60 S7 30.09S  
 
   
..EASTERN GEORGIA
 
 
 
CITY SKY/WX TMP DP RH WIND PRES REMARKS
 
AUGUSTA BUSH F MOSUNNY 87 69 54 SW12 30.05F  
AUGUSTA DANIEL SUNNY 85 66 53 S10 30.08S  
THOMSON SUNNY 83 67 57 W8 30.12F  
WASHINGTON FAIR 81 70 69 SW6 30.07F  
CLAXTON FAIR 87 71 59 S7 30.08S  
SYLVANIA MOSUNNY N/A N/A N/A S3 30.08F  
STATESBORO MOSUNNY 89 66 46 S8G20 30.07F  
SAVANNAH MOSUNNY 89 63 41 S12 30.08F  
 
   
..SOUTHERN NORTH CAROLINA
 
 
 
CITY SKY/WX TMP DP RH WIND PRES REMARKS
 
CHARLOTTE PTSUNNY 80 66 62 S12 30.09S  
MONROE MOSUNNY 80 67 64 S9 30.08F  
WADESBORO MOSUNNY 83 67 59 S8 30.07F  
ROCKINGHAM MOSUNNY 83 70 66 SW8 30.07F  
RUTHERFORDTON CLOUDY 73 66 77 S8G18 30.11R  
ASHEVILLE SUNNY 75 62 64 SE10 30.10F  
 

 
 
 
CLICK HERE TO GO TO PREVIOUS BULLETINS.

The Nexlab SC Page
The Nexlab GA Page Main Text Page